ELECTRON KICK STAGE R/B, 44636

Orbit data source: Space-Track

ELECTRON KICK STAGE R/B, 44636 is space debris in LEO originally from a launch on Thu, 17 Oct 2019 UTC launched from the Rocket Lab Launch Complex (RLLC). Debris objects in space refer to the collection of defunct objects orbiting the Earth. Examples of debris include non-operational satellites, rocket bodies, and fragments generated from explosions, collisions, or faulty payload assembly.

Loading next visibility...
Identifier
44636, 2019-069C
Orbit
LEO
Country
Flag of USUS
Related business
Manufacturer
Rocket Lab
Mission
Spacecraft
Bus & Motor
KICK STAGE, CURIE
Mass
40 kg wet, 40 kg dry
Launch date (UTC)
2019-10-17 (7 years ago)
Launch vehicle
Unknown
Launch site
Rocket Lab Launch Complex (RLLC)
Object type
Payload
Rocket body
Debris
Shape & HBR
Trunc Cone, 0.7 m
Radar Cross Section
0.760 m², Large (>1 m²)

Expand to show TLE details & history
Last TLE update: 2 days ago

TLE from 2 days ago
0 ELECTRON KICK STAGE R/B
1 44636U 19069C   26170.96692135  .00003911  00000-0  51509-3 0  9992
2 44636  87.8990 181.5675 0434474  60.5918 303.7918 14.30820273345579
Epoch: 2026-06-19T23:12Z
TLE epoch observation values (Epoch: 2026-06-19T23:12:22.004Z)
Latitude
Longitude
-74.71249°
Altitude
628.515 km
Speed
7.63 km/s
True Right ascension
12h 06m 16s
True Declination
0° 00' 00"
Sunlit
Object was in daylight at epoch
Visualization orbit readout
Latitude
Unknown
Longitude
Unknown
Altitude
Unknown
Speed
Unknown
Apparent Right ascension
Unknown
Apparent Declination
Unknown
Sunlit
N/A
Visualization observer readout
Local Sidereal Time
21:26:58
Azimuth
Unknown
Elevation
Unknown
Doppler factor
Unknown
Orbital elements
Apogee altitude
1,097.187 km
Perigee altitude
474.667 km
Semi-major axis
7,164.064 km
Eccentricity
0.04345
Inclination
87.899°
RAAN
181.5675°
Arg. of periapsis
60.5918°
True anomaly
299.52942°
Mean anomaly
303.7918°
Eccentric anomaly
301.67322°
Mean motion
3.57935 °/min
Orbital period
100.58 mins
BSTAR
0.00051509
Loading maneuver chart data...
Computing Atmospheric mass density...
Loading historical data...
Loading historical data...
Loading historical data...
Loading historical data...
Loading historical data...
Loading historical data...
Loading historical data...
Other satellites on launch #69 in the year 2019 (2019-10-17 UTC)

Documentation

Showing up to 5 results
|